This is the latest recevied weather packets stored in our database for station/object GJ7DNI-13. If no packets are shown the sender has not sent any weather packets the latest 10 day(s).
| Time | Temp. | Humidity | Pressure | Rain* | Wind** | Luminosity | Snow |
|---|---|---|---|---|---|---|---|
| 1777819501 | 16.11° C | 80% | 1008.6 hPa | 0.51 mm | - | 468 W/m² | - |
| 1777819201 | 16.11° C | 81% | 1008.6 hPa | 0.51 mm | - | 336 W/m² | - |
| 1777818901 | 15.56° C | 81% | 1008.6 hPa | 0.76 mm | - | 200 W/m² | - |
| 1777818601 | 15.56° C | 81% | 1008.7 hPa | 1.02 mm | - | 213 W/m² | - |
| 1777818301 | 15° C | 80% | 1008.8 hPa | 1.02 mm | - | 197 W/m² | - |
| 1777818001 | 15° C | 81% | 1008.9 hPa | 1.02 mm | - | 169 W/m² | - |
| 1777817701 | 15° C | 80% | 1008.9 hPa | 1.02 mm | - | 255 W/m² | - |
| 1777817401 | 15.56° C | 83% | 1009 hPa | 1.02 mm | - | 360 W/m² | - |
| 1777817101 | 15° C | 83% | 1009 hPa | 1.02 mm | - | 403 W/m² | - |
| 1777816801 | 15° C | 80% | 1009.1 hPa | 1.02 mm | - | 315 W/m² | - |
| 1777816501 | 15° C | 79% | 1009.2 hPa | 1.02 mm | - | 199 W/m² | - |
| 1777816201 | 15° C | 79% | 1009.3 hPa | 0.76 mm | - | 130 W/m² | - |
| 1777815901 | 15° C | 77% | 1009.3 hPa | 0.51 mm | - | 116 W/m² | - |
| 1777815601 | 15.56° C | 76% | 1009.3 hPa | 0.51 mm | - | 88 W/m² | - |
| 1777815301 | 15.56° C | 75% | 1009.3 hPa | 0.25 mm | - | 67 W/m² | - |
| 1777815001 | 15.56° C | 75% | 1009.3 hPa | 0 mm | - | 53 W/m² | - |
| 1777814701 | 16.11° C | 73% | 1009.3 hPa | 0 mm | - | 42 W/m² | - |
| 1777814401 | 16.11° C | 72% | 1009.3 hPa | 0 mm | - | 47 W/m² | - |
| 1777814101 | 16.11° C | 72% | 1009.3 hPa | 0 mm | - | 65 W/m² | - |
| 1777813801 | 16.67° C | 71% | 1009.3 hPa | 0 mm | - | 88 W/m² | - |
| 1777813501 | 16.67° C | 71% | 1009.2 hPa | 0 mm | - | 130 W/m² | - |
| 1777813201 | 16.67° C | 70% | 1009.2 hPa | 0 mm | - | 165 W/m² | - |
| 1777812901 | 16.67° C | 70% | 1009 hPa | 0 mm | - | 190 W/m² | - |
| 1777812601 | 16.67° C | 69% | 1009 hPa | 0 mm | - | 193 W/m² | - |
| 1777812301 | 16.67° C | 70% | 1008.9 hPa | 0 mm | - | 262 W/m² | - |
* Rain latest hour (hover to see other rain measurements)
** Current wind speed in m/s (hover to see current wind gust speed)